Regional Weather Roundup
Issued by NWS

Home | Current Version | Previous Version | Graphics & Text | Print | Product List | Glossary On
Versions: 1 2 3 4 5 6 7 8 9 10 11 12 13 14 15 16 17 18 19 20 21 22 23 24 25 26 27 28 29 30 31 32 33 34 35 36 37 38 39 40 41 42 43 44 45 46 47 48 49 50
000
ASUS45 KCYS 201410
RWRWY

WYOMING REGIONAL WEATHER ROUNDUP
NATIONAL WEATHER SERVICE CHEYENNE WY
800 AM MDT FRI APR 20 2018

NOTE:  "FAIR" INDICATES FEW OR NO CLOUDS BELOW 12,000 FEET
WITH NO SIGNIFICANT WEATHER AND/OR OBSTRUCTIONS TO VISIBILITY.

WYZ001-201500-
YELLOWSTONE NATIONAL PARK

CITY           SKY/WX    TMP DP  RH WIND       PRES   REMARKS
LK YELLOWSTONE   N/A     35  16  45 CALM      30.11R
W YELLOWSTONE  NOT AVBL

$$
WYZ002>013-054>058-071-098>099-201500-
NORTHERN WYOMING

CITY           SKY/WX    TMP DP  RH WIND       PRES   REMARKS
JACKSON        FAIR      35  22  58 N18       30.01R WCI  24
CODY           NOT AVBL
GREYBULL       FAIR      46  34  62 NW8       29.99R
WORLAND        FAIR      45  34  65 N3        30.00R
SHERIDAN       FAIR      43  35  73 W9        30.07R
BUFFALO        FAIR      40  29  64 S5        30.06R
GILLETTE       FAIR      41  28  60 SE12      30.07R
HULETT         FAIR      45  32  61 S9        30.10S
NEWCASTLE      FAIR      43  27  52 SE20G28   30.10R

$$
WYZ014>020-022>026-101>103-201500-
CENTRAL WYOMING

CITY           SKY/WX    TMP DP  RH WIND       PRES   REMARKS
BIG PINEY      CLOUDY    38  36  92 NW10      29.98R WCI  31
PINEDALE       CLOUDY    39  32  75 W5        29.97S
DUBOIS         PTSUNNY   34  23  64 W7        30.02S WCI  28
LANDER         CLOUDY    39  30  70 S3        30.00R
RIVERTON       CLOUDY    43  25  49 E3        30.00R
CASPER         FAIR      37  28  70 NE9       30.00R WCI  30
DOUGLAS        PTSUNNY   36  28  73 SE14      30.02R WCI  27

$$
WYZ021-027>030-104>119-201500-
SOUTHERN WYOMING

CITY           SKY/WX    TMP DP  RH WIND       PRES   REMARKS
EVANSTON       PTSUNNY   37  31  78 E16G31    29.93R WCI  28
KEMMERER       FAIR      36  34  93 NE15      29.95R WCI  26
FORT BRIDGER   CLOUDY    37  36  94 E13G22    29.98R WCI  29
ROCK SPRINGS   CLOUDY    38  24  57 NE17      29.96R WCI  28
DIXON          DRIZZLE   42  38  87 CALM      29.92R
RAWLINS        CLOUDY    38  24  57 NE8       29.96R WCI  32
SARATOGA       CLOUDY    36  23  60 NW13      29.93R WCI  27
LARAMIE        FAIR      33  23  66 S15       29.90S WCI  23
CHEYENNE       PTSUNNY   34  26  72 SE12      29.97S WCI  25
TORRINGTON     FAIR      39  29  67 SE16      30.05R WCI  30
PINE BLUFFS    FAIR      36  28  75 MISG      30.00R

$$



USA.gov is the U.S. government's official web portal to all federal, state and local government web resources and services.